When you browse on this site, cookies collect data to enhance your experience and personalize the content and advertising you see.
Visit our Privacy Policy to learn more. By continuing to use the site, you agree to this use of cookies and data.
  • In United Kingdom
  • List of Countries
  • For 7 days
  • Water Temperature
  • Satellite Maps
  • Weather Map
  • Weather Widgets
  • user-avatar
    Login

    Hourly Weather Nakhchivan

    Today, 19 April, Friday

    Time Temperature Precipitation Wind Pressure Humidity
    00:00 +15°C° 0.2 mm 2 mps 684 mmHg 41%
    01:00 +14°C° 0.1 mm 2 mps 684 mmHg 43%
    02:00 +13°C° 0.1 mm 2 mps 684 mmHg 45%
    03:00 +13°C° 0 mm 2 mps 683 mmHg 48%
    04:00 +13°C° 0 mm 2 mps 683 mmHg 48%
    05:00 +13°C° 0 mm 2 mps 683 mmHg 48%
    06:00 +12°C° 0 mm 2 mps 683 mmHg 48%
    07:00 +13°C° 0 mm 1 mps 683 mmHg 45%
    08:00 +14°C° 0 mm 1 mps 683 mmHg 41%
    09:00 +14°C° 0 mm 1 mps 682 mmHg 39%
    10:00 +15°C° 0 mm 1 mps 682 mmHg 38%
    11:00 +16°C° 0 mm 1 mps 682 mmHg 37%
    12:00 +18°C° 0 mm 1 mps 682 mmHg 36%
    13:00 +18°C° 0.2 mm 1 mps 682 mmHg 36%
    14:00 +18°C° 0.2 mm 1 mps 681 mmHg 36%
    15:00 +16°C° 0 mm 1 mps 681 mmHg 39%
    16:00 +16°C° 0.2 mm 1 mps 682 mmHg 40%
    17:00 +16°C° 0.2 mm 1 mps 682 mmHg 40%
    18:00 +16°C° 0.2 mm 1 mps 682 mmHg 40%
    19:00 +15°C° 0.5 mm 1 mps 682 mmHg 44%
    20:00 +14°C° 0.5 mm 1 mps 682 mmHg 47%
    21:00 +13°C° 0.5 mm 2 mps 682 mmHg 51%
    22:00 +12°C° 0.6 mm 2 mps 682 mmHg 55%
    23:00 +12°C° 0.6 mm 2 mps 681 mmHg 59%

    Tomorrow, 20 April, Saturday

    Time Temperature Precipitation Wind Pressure Humidity
    00:00 +10°C° 0.6 mm 2 mps 681 mmHg 63%
    01:00 +9°C° 0.7 mm 2 mps 681 mmHg 64%
    02:00 +9°C° 0.7 mm 3 mps 681 mmHg 66%
    03:00 +8°C° 0.7 mm 3 mps 681 mmHg 68%
    04:00 +8°C° 1.5 mm 2 mps 681 mmHg 69%
    05:00 +8°C° 1.5 mm 2 mps 681 mmHg 70%
    06:00 +7°C° 1.5 mm 2 mps 682 mmHg 72%
    07:00 +7°C° 0.8 mm 2 mps 682 mmHg 71%
    08:00 +7°C° 0.8 mm 2 mps 683 mmHg 69%
    09:00 +7°C° 0.8 mm 2 mps 683 mmHg 68%
    10:00 +9°C° 0.4 mm 1 mps 683 mmHg 65%
    11:00 +10°C° 0.4 mm 1 mps 684 mmHg 61%
    12:00 +10°C° 0.4 mm 1 mps 684 mmHg 58%
    13:00 +11°C° 0 mm 1 mps 684 mmHg 54%
    14:00 +12°C° 0 mm 1 mps 684 mmHg 49%
    15:00 +13°C° 0 mm 1 mps 684 mmHg 45%
    16:00 +13°C° 0 mm 1 mps 684 mmHg 44%
    17:00 +13°C° 0 mm 2 mps 684 mmHg 43%
    18:00 +13°C° 0 mm 2 mps 685 mmHg 42%
    19:00 +12°C° 0 mm 2 mps 685 mmHg 44%
    20:00 +12°C° 0 mm 2 mps 686 mmHg 46%
    21:00 +10°C° 0 mm 2 mps 686 mmHg 47%
    22:00 +10°C° 0 mm 2 mps 686 mmHg 49%
    23:00 +9°C° 0 mm 2 mps 686 mmHg 50%

    Day after tomorrow, 21 April, Sunday

    Time Temperature Precipitation Wind Pressure Humidity
    00:00 +10°C° 0 mm 1 mps 686 mmHg 51%
    01:00 +9°C° 0 mm 1 mps 686 mmHg 52%
    02:00 +9°C° 0 mm 1 mps 686 mmHg 53%
    03:00 +9°C° 0 mm 1 mps 686 mmHg 54%
    04:00 +9°C° 0 mm 1 mps 686 mmHg 54%
    05:00 +9°C° 0 mm 1 mps 686 mmHg 54%
    06:00 +9°C° 0 mm 1 mps 686 mmHg 55%
    07:00 +10°C° 0 mm 1 mps 686 mmHg 51%
    08:00 +10°C° 0 mm 2 mps 686 mmHg 47%
    09:00 +12°C° 0 mm 2 mps 686 mmHg 43%
    10:00 +13°C° 0 mm 2 mps 686 mmHg 40%
    11:00 +13°C° 0 mm 3 mps 686 mmHg 38%
    12:00 +15°C° 0 mm 4 mps 685 mmHg 35%
    13:00 +15°C° 0 mm 4 mps 685 mmHg 33%
    14:00 +16°C° 0 mm 5 mps 685 mmHg 32%
    15:00 +16°C° 0 mm 6 mps 685 mmHg 30%
    16:00 +16°C° 0 mm 6 mps 684 mmHg 31%
    17:00 +15°C° 0 mm 6 mps 684 mmHg 33%
    18:00 +14°C° 0 mm 6 mps 684 mmHg 34%
    19:00 +13°C° 0 mm 5 mps 684 mmHg 37%
    20:00 +12°C° 0 mm 5 mps 685 mmHg 40%
    21:00 +12°C° 0 mm 4 mps 685 mmHg 44%
    22:00 +11°C° 0 mm 4 mps 685 mmHg 45%
    23:00 +10°C° 0 mm 3 mps 685 mmHg 46%

    22 April, Monday

    Time Temperature Precipitation Wind Pressure Humidity
    00:00 +10°C° 0 mm 2 mps 685 mmHg 47%
    01:00 +9°C° 0 mm 2 mps 685 mmHg 49%
    02:00 +10°C° 0 mm 1 mps 685 mmHg 50%
    03:00 +10°C° 0 mm 1 mps 685 mmHg 52%
    04:00 +9°C° 0 mm 1 mps 685 mmHg 52%
    05:00 +9°C° 0 mm 1 mps 684 mmHg 52%
    06:00 +9°C° 0 mm 1 mps 684 mmHg 52%
    07:00 +10°C° 0 mm 1 mps 684 mmHg 49%
    08:00 +11°C° 0 mm 1 mps 684 mmHg 45%
    09:00 +11°C° 0 mm 1 mps 684 mmHg 41%
    10:00 +12°C° 0.2 mm 2 mps 684 mmHg 41%
    11:00 +12°C° 0.2 mm 2 mps 684 mmHg 41%
    12:00 +13°C° 0.2 mm 2 mps 683 mmHg 40%
    13:00 +13°C° 0.1 mm 2 mps 683 mmHg 38%
    14:00 +14°C° 0.1 mm 2 mps 683 mmHg 37%
    15:00 +14°C° 0.1 mm 2 mps 683 mmHg 35%
    16:00 +14°C° 0.1 mm 2 mps 684 mmHg 39%
    17:00 +13°C° 0.1 mm 2 mps 684 mmHg 42%
    18:00 +12°C° 0.1 mm 2 mps 684 mmHg 45%
    19:00 +12°C° 0.1 mm 2 mps 685 mmHg 47%
    20:00 +11°C° 0.1 mm 1 mps 685 mmHg 49%
    21:00 +11°C° 0.1 mm 1 mps 686 mmHg 51%
    22:00 +10°C° 0.1 mm 1 mps 686 mmHg 52%
    23:00 +10°C° 0.1 mm 1 mps 686 mmHg 53%

    23 April, Tuesday

    Time Temperature Precipitation Wind Pressure Humidity
    00:00 +9°C° 0.1 mm 0 mps 687 mmHg 55%
    01:00 +9°C° 0.1 mm 1 mps 687 mmHg 56%
    02:00 +9°C° 0.1 mm 1 mps 687 mmHg 57%
    03:00 +9°C° 0.1 mm 1 mps 688 mmHg 58%
    04:00 +9°C° 0.1 mm 1 mps 688 mmHg 58%
    05:00 +8°C° 0.1 mm 1 mps 689 mmHg 59%
    06:00 +8°C° 0.1 mm 1 mps 689 mmHg 59%
    07:00 +8°C° 0 mm 1 mps 689 mmHg 57%
    08:00 +9°C° 0 mm 1 mps 690 mmHg 55%
    09:00 +9°C° 0 mm 1 mps 690 mmHg 53%
    10:00 +10°C° 0 mm 1 mps 690 mmHg 49%
    11:00 +11°C° 0 mm 1 mps 690 mmHg 46%
    12:00 +12°C° 0 mm 1 mps 690 mmHg 42%
    13:00 +12°C° 0 mm 1 mps 690 mmHg 40%
    14:00 +13°C° 0 mm 1 mps 690 mmHg 37%
    15:00 +14°C° 0 mm 1 mps 690 mmHg 35%
    16:00 +13°C° 0 mm 2 mps 690 mmHg 36%
    17:00 +12°C° 0 mm 3 mps 691 mmHg 36%
    18:00 +12°C° 0 mm 4 mps 691 mmHg 37%
    19:00 +11°C° 0 mm 4 mps 692 mmHg 39%
    20:00 +10°C° 0 mm 3 mps 692 mmHg 41%
    21:00 +10°C° 0 mm 3 mps 693 mmHg 43%
    22:00 +9°C° 0 mm 2 mps 693 mmHg 44%
    23:00 +9°C° 0 mm 2 mps 693 mmHg 46%

    24 April, Wednesday

    Time Temperature Precipitation Wind Pressure Humidity
    00:00 +9°C° 0 mm 2 mps 693 mmHg 47%
    01:00 +8°C° 0 mm 2 mps 693 mmHg 49%
    02:00 +9°C° 0 mm 1 mps 693 mmHg 50%
    03:00 +8°C° 0 mm 1 mps 693 mmHg 52%
    04:00 +8°C° 0 mm 1 mps 693 mmHg 52%
    05:00 +8°C° 0 mm 1 mps 694 mmHg 52%
    06:00 +8°C° 0 mm 1 mps 694 mmHg 52%
    07:00 +9°C° 0 mm 1 mps 694 mmHg 49%
    08:00 +10°C° 0 mm 1 mps 694 mmHg 46%
    09:00 +10°C° 0 mm 0 mps 694 mmHg 43%
    10:00 +12°C° 0 mm 1 mps 693 mmHg 40%
    11:00 +13°C° 0 mm 1 mps 693 mmHg 37%
    12:00 +14°C° 0 mm 1 mps 693 mmHg 34%
    13:00 +14°C° 0 mm 1 mps 692 mmHg 32%
    14:00 +15°C° 0 mm 1 mps 692 mmHg 30%
    15:00 +16°C° 0 mm 1 mps 692 mmHg 28%
    16:00 +15°C° 0 mm 2 mps 692 mmHg 29%
    17:00 +14°C° 0 mm 3 mps 692 mmHg 29%
    18:00 +14°C° 0 mm 4 mps 692 mmHg 30%
    19:00 +13°C° 0 mm 3 mps 692 mmHg 33%
    20:00 +12°C° 0 mm 3 mps 693 mmHg 36%
    21:00 +12°C° 0 mm 3 mps 693 mmHg 39%
    22:00 +11°C° 0 mm 3 mps 693 mmHg 40%
    23:00 +12°C° 0 mm 2 mps 693 mmHg 41%
    Show more